Lid_Strength_Index
8 8 8 7 7 7 6 6 5 4 4 4 3 1 -0 -0 0 -0 -0 2 1 -1 -2 -2 -2 -2 -2 -2 -2 -2 -2 -2 -2 -2 -2 -2 -2 -2 -2 -2 -2 -2 -2
9 9 9 8 8 8 7 6 6 5 4 4 3 3 2 1 0 -0 0 -0 1 0 -1 -2 -2 -2 -2 -2 -2 -2 -2 -2 -2 -2 -2 -2 -2 -2 -2 -2 -2 -2 -2
9 9 9 9 8 8 7 7 7 6 5 4 4 3 3 3 2 2 1 0 -0 1 0 -1 -2 -2 -2 -2 -2 -2 -2 -2 -2 -2 -2 -2 -2 -2 -2 -2 -2 -2 -2
8 9 9 9 9 8 8 8 8 8 7 6 5 4 4 4 3 3 2 1 1 0 1 0 -1 -1 -1 -2 -2 -2 -2 -2 -1 -1 -1 -1 -2 -2 -2 -2 -2 -2 -1
9 10 10 10 9 9 9 9 9 9 8 8 6 5 5 4 4 3 3 3 2 3 0 0 1 0 -1 -1 -2 -2 -2 -2 -1 -1 -1 -1 -1 -1 -1 -2 -2 -1 -1
9 10 10 10 9 9 10 9 9 9 9 8 7 7 6 5 4 4 4 3 3 2 2 -0 -0 1 1 -1 -1 -1 -2 -1 -1 -1 -1 -1 -1 -1 -1 -1 -1 -2 -1
10 10 10 10 10 10 10 10 10 10 10 9 9 9 7 6 5 5 4 4 4 3 2 3 0 -0 -0 -0 -1 -1 -1 -1 -1 -1 -1 -1 -1 -1 -1 -1 -1 -1 -1
10 10 11 11 11 11 11 11 11 11 10 9 10 9 11 9 8 6 5 5 5 4 3 3 0 -0 -0 -0 0 -1 -1 -1 -1 -1 -1 -1 -1 -1 -1 -1 -1 -1 -1
11 11 11 11 11 11 11 11 11 11 11 10 9 9 10 10 8 7 7 6 6 5 5 3 2 -0 -0 0 0 -0 -0 -1 -1 -1 -1 -1 -1 -1 -1 -1 -1 -1 -1
12 11 11 12 12 11 11 10 9 9 9 10 9 8 8 8 10 10 9 7 6 5 5 4 2 0 -0 0 1 2 3 1 1 -0 -0 -1 -1 -1 -1 -2 -1 -1 -1
12 12 12 12 11 11 10 10 10 10 9 10 10 10 9 9 9 10 11 9 8 7 6 5 5 3 2 1 -0 1 3 2 2 2 0 0 -0 -1 -1 -1 -1 -2 -1
13 13 12 12 12 11 11 10 10 10 10 10 10 10 10 10 10 10 11 10 9 8 7 7 6 4 2 2 2 3 2 3 2 2 2 1 0 -0 -1 -1 -1 -1 -1
14 14 13 12 12 11 11 11 11 11 11 11 11 10 10 10 9 9 10 11 11 9 9 8 7 6 4 2 2 5 4 3 3 3 2 2 1 0 -0 -0 -1 -1 -1
14 13 12 12 12 12 12 11 11 11 11 11 11 10 10 10 9 9 10 11 12 11 10 9 7 7 6 5 4 6 3 3 2 3 3 2 1 1 1 0 -0 -0 -0
13 13 12 13 12 12 12 12 12 12 12 12 11 11 11 10 10 9 9 9 11 14 13 10 9 9 8 7 7 6 5 5 3 2 3 3 2 2 1 0 0 -0 0
13 13 13 13 13 13 13 12 12 12 12 12 12 12 11 11 10 10 9 9 9 11 13 10 10 9 9 9 9 8 7 7 7 5 4 5 4 4 2 1 1 1 0
13 13 13 13 13 13 13 13 13 12 12 12 12 12 12 11 11 10 9 9 9 9 12 11 10 10 11 11 10 11 10 9 8 7 6 5 5 5 5 3 2 2 1
14 13 13 13 13 13 13 13 13 13 13 13 13 12 12 11 11 11 10 10 10 9 11 12 12 12 11 11 11 12 12 12 11 9 6 6 7 6 6 6 6 4 3
17 14 13 13 13 13 13 13 13 13 13 13 12 12 12 12 12 11 11 10 9 9 9 10 11 11 10 11 12 12 12 12 12 10 10 9 10 8 7 7 6 7 7
16 14 13 14 14 14 13 13 13 13 13 12 12 12 12 12 12 11 10 10 10 11 10 11 11 11 10 11 12 11 12 13 12 12 12 12 12 12 10 9 8 8 8
17 13 14 14 14 14 13 12 12 13 13 13 12 12 12 12 11 10 9 10 11 11 11 11 11 10 10 12 12 12 12 13 14 13 13 14 12 12 10 11 11 10 8
20 17 16 14 14 13 11 10 11 14 13 13 13 13 12 12 11 10 9 8 9 11 11 11 10 10 9 10 11 11 12 12 12 13 14 15 13 12 11 11 9 9 9
22 21 20 18 16 14 11 11 12 14 14 14 13 12 12 12 12 12 10 9 9 8 8 9 10 10 9 9 10 12 12 13 15 15 14 17 16 15 15 11 9 9 10
22 22 22 22 21 17 12 11 12 16 16 16 14 13 12 12 12 12 12 12 12 11 10 10 9 9 8 9 9 10 12 15 15 16 16 18 18 18 17 17 10 10 11
21 22 21 23 22 21 13 11 14 17 16 17 16 14 12 12 11 11 12 13 13 14 12 12 11 9 7 7 11 12 13 13 16 17 17 18 19 18 19 19 17 10 11
20 19 19 22 21 21 15 12 13 15 18 17 18 15 13 12 12 11 14 15 17 17 16 16 16 16 16 14 13 12 12 13 16 17 17 18 19 18 19 19 19 18 14